Date String (YYYY-MM-DD hh:mm:ss) UTC,Instrument flags,Ambient pressure (hPa),Sample flow (lpm),Bypass flow (lpm),Sample temperature (°C),Ambient temperature (°C),ASC tube jacket temperature (°C),LED temperature (°C),Box temperature (°C),Sample RH (%),Span deviation,Mass concentration (μg/m³),Mass concentration (μg/m³),Mass concentration (μg/m³)
DateTimeUTC,F1_M11,P_M11,Q1_M11,Q2_M11,T1_M11,T2_M11,T3_M11,T4_M11,T5_M11,U1_M11,ZSPAN_M11,X2_M11,X0_M11,X1_M11
2022-03-05 03:00:00,,0814.4,4.98,0.00,28.6,27.7,00.0,37.7,30.3,09.5,0000.0,0003.94,0011.00,0003.16
2022-03-05 03:01:00,,0814.4,5.02,0.00,28.6,27.7,00.0,37.7,30.2,09.5,0000.0,0003.89,0010.49,0003.14
2022-03-05 03:02:00,,0814.4,5.00,0.00,28.6,27.7,00.0,37.7,30.3,09.5,0000.0,0003.83,0009.30,0003.09
2022-03-05 03:03:00,,0814.4,5.00,0.00,28.5,27.7,00.0,37.7,30.3,09.4,0000.0,0003.74,0008.76,0003.03
2022-03-05 03:04:00,,0814.4,5.01,0.00,28.5,27.7,00.0,37.7,30.3,09.5,0000.0,0003.70,0008.72,0003.00
2022-03-05 03:05:00,,0814.4,4.99,0.00,28.6,27.8,00.0,37.7,30.4,09.7,0000.0,0003.65,0008.89,0002.96
2022-03-05 03:06:00,,0814.4,5.01,0.00,28.6,27.8,00.0,37.7,30.4,09.8,0000.0,0003.64,0009.20,0002.96
2022-03-05 03:07:00,,0814.4,4.99,0.00,28.6,27.9,00.0,37.7,30.4,09.7,0000.0,0003.62,0009.18,0003.00
2022-03-05 03:08:00,,0814.4,5.01,0.00,28.6,27.9,00.0,37.7,30.4,10.1,0000.0,0003.68,0009.76,0003.03
2022-03-05 03:09:00,,0814.5,5.02,0.00,28.6,27.9,00.0,37.7,30.4,10.1,0000.0,0003.77,0010.45,0003.05
2022-03-05 03:10:00,,0814.6,4.99,0.00,28.7,27.9,00.0,37.7,30.5,09.9,0000.0,0003.87,0011.43,0003.11
2022-03-05 03:11:00,,0814.7,5.01,0.00,28.7,28.0,00.0,37.7,30.5,09.6,0000.0,0003.95,0011.69,0003.17
2022-03-05 03:12:00,,0814.6,4.99,0.00,28.7,28.0,00.0,37.7,30.5,09.6,0000.0,0004.02,0011.55,0003.25
2022-03-05 03:13:00,,0814.8,5.00,0.00,28.7,28.0,00.0,37.7,30.5,09.6,0000.0,0004.12,0011.59,0003.34
2022-03-05 03:14:00,,0814.9,4.99,0.00,28.7,28.0,00.0,37.7,30.5,09.8,0000.0,0004.22,0011.70,0003.42
2022-03-05 03:15:00,,0814.6,5.00,0.00,28.7,28.0,00.0,37.7,30.6,10.1,0000.0,0004.34,0012.61,0003.49
2022-03-05 03:16:00,,0814.6,4.99,0.00,28.7,28.0,00.0,37.7,30.6,10.0,0000.0,0004.46,0013.20,0003.57
2022-03-05 03:17:00,,0814.9,5.00,0.00,28.7,28.0,00.0,37.7,30.5,10.1,0000.0,0004.55,0012.61,0003.62
2022-03-05 03:18:00,,0814.6,5.00,0.00,28.7,28.0,00.0,37.7,30.5,09.9,0000.0,0004.61,0013.21,0003.65
2022-03-05 03:19:00,,0814.6,4.99,0.00,28.7,28.0,00.0,37.7,30.5,10.0,0000.0,0004.65,0013.13,0003.69
2022-03-05 03:20:00,,0814.9,5.01,0.00,28.7,28.0,00.0,37.7,30.5,10.0,0000.0,0004.66,0012.57,0003.72
2022-03-05 03:21:00,,0814.9,4.99,0.00,28.7,28.0,00.0,37.7,30.5,10.1,0000.0,0004.63,0011.88,0003.74
2022-03-05 03:22:00,,0815.0,5.00,0.00,28.7,28.0,00.0,37.7,30.5,10.0,0000.0,0004.62,0012.28,0003.74
2022-03-05 03:23:00,,0814.8,4.99,0.00,28.7,28.0,00.0,37.7,30.5,10.0,0000.0,0004.60,0012.45,0003.71
2022-03-05 03:24:00,,0815.0,5.01,0.00,28.7,27.9,00.0,37.7,30.5,10.0,0000.0,0004.52,0012.97,0003.66
2022-03-05 03:25:00,,0814.6,5.00,0.00,28.7,27.9,00.0,37.7,30.5,10.1,0000.0,0004.49,0015.03,0003.63
2022-03-05 03:26:00,,0814.4,5.01,0.00,28.7,27.9,00.0,37.7,30.5,10.1,0000.0,0004.40,0014.84,0003.59
2022-03-05 03:27:00,,0814.5,4.99,0.00,28.7,27.9,00.0,37.7,30.4,09.9,0000.0,0004.36,0013.96,0003.55
2022-03-05 03:28:00,,0814.9,5.02,0.00,28.7,27.9,00.0,37.7,30.4,10.0,0000.0,0004.31,0013.81,0003.52
2022-03-05 03:29:00,,0814.9,4.99,0.00,28.7,27.9,00.0,37.7,30.4,09.9,0000.0,0004.30,0013.51,0003.48
2022-03-05 03:30:00,,0814.6,5.01,0.00,28.7,27.9,00.0,37.7,30.4,09.9,0000.0,0004.23,0013.41,0003.44
2022-03-05 03:31:00,,0814.4,4.99,0.00,28.7,27.9,00.0,37.7,30.4,09.9,0000.0,0004.20,0013.66,0003.41
2022-03-05 03:32:00,,0814.4,5.00,0.00,28.6,27.9,00.0,37.7,30.4,09.7,0000.0,0004.21,0014.92,0003.39
2022-03-05 03:33:00,,0814.4,5.01,0.00,28.6,27.8,00.0,37.7,30.4,09.8,0000.0,0004.18,0014.45,0003.35
2022-03-05 03:34:00,,0814.4,5.01,0.00,28.6,27.8,00.0,37.7,30.4,09.9,0000.0,0004.18,0014.26,0003.32
2022-03-05 03:35:00,,0814.4,5.00,0.00,28.6,27.8,00.0,37.7,30.4,10.0,0000.0,0004.19,0013.82,0003.30
2022-03-05 03:36:00,,0814.4,4.99,0.00,28.6,27.8,00.0,37.7,30.4,09.8,0000.0,0004.16,0011.86,0003.25
2022-03-05 03:37:00,,0814.4,5.01,0.00,28.6,27.9,00.0,37.7,30.4,09.8,0000.0,0004.18,0011.78,0003.22
2022-03-05 03:38:00,,0814.4,5.00,0.00,28.6,27.9,00.0,37.7,30.4,10.0,0000.0,0004.14,0011.74,0003.19
2022-03-05 03:39:00,,0814.4,4.99,0.00,28.6,27.9,00.0,37.7,30.4,10.0,0000.0,0004.11,0012.08,0003.16
2022-03-05 03:40:00,,0814.3,5.00,0.00,28.7,27.9,00.0,37.7,30.4,09.9,0000.0,0004.05,0011.92,0003.13
2022-03-05 03:41:00,,0814.3,5.00,0.00,28.7,27.9,00.0,37.7,30.4,09.8,0000.0,0004.02,0012.13,0003.12
2022-03-05 03:42:00,,0814.4,5.00,0.00,28.7,27.9,00.0,37.7,30.4,09.8,0000.0,0003.99,0012.18,0003.09
2022-03-05 03:43:00,,0814.4,5.00,0.00,28.7,27.9,00.0,37.7,30.4,09.9,0000.0,0003.95,0011.34,0003.04
2022-03-05 03:44:00,,0814.4,5.01,0.00,28.7,27.9,00.0,37.7,30.4,09.8,0000.0,0003.95,0011.17,0003.02
2022-03-05 03:45:00,,0814.4,4.98,0.00,28.7,27.9,00.0,37.7,30.4,09.8,0000.0,0003.93,0011.08,0003.00
2022-03-05 03:46:00,,0814.4,5.02,0.00,28.6,27.9,00.0,37.7,30.4,09.8,0000.0,0003.92,0011.70,0002.98
2022-03-05 03:47:00,,0814.4,4.98,0.00,28.6,27.9,00.0,37.7,30.4,09.9,0000.0,0003.91,0012.89,0002.98
2022-03-05 03:48:00,,0814.4,5.01,0.00,28.6,27.9,00.0,37.7,30.4,09.8,0000.0,0003.89,0014.36,0002.99
2022-03-05 03:49:00,,0814.4,4.98,0.00,28.6,27.9,00.0,37.7,30.4,09.8,0000.0,0003.90,0015.13,0003.01
2022-03-05 03:50:00,,0814.4,5.01,0.00,28.6,27.8,00.0,37.6,30.4,09.7,0000.0,0003.88,0015.43,0003.03
2022-03-05 03:51:00,,0814.4,5.00,0.00,28.6,27.9,00.0,37.7,30.4,09.8,0000.0,0003.90,0015.34,0003.07
2022-03-05 03:52:00,,0814.4,5.01,0.00,28.6,27.9,00.0,37.7,30.4,09.8,0000.0,0003.90,0014.92,0003.09
2022-03-05 03:53:00,,0814.4,4.99,0.00,28.6,27.9,00.0,37.7,30.4,09.9,0000.0,0003.97,0015.66,0003.12
2022-03-05 03:54:00,,0814.4,5.02,0.00,28.6,27.9,00.0,37.6,30.4,09.9,0000.0,0004.02,0015.56,0003.14
2022-03-05 03:55:00,,0814.4,4.98,0.00,28.6,27.9,00.0,37.6,30.4,09.9,0000.0,0004.03,0015.56,0003.16
2022-03-05 03:56:00,,0814.4,4.99,0.00,28.7,27.9,00.0,37.6,30.4,09.9,0000.0,0004.05,0016.10,0003.17
2022-03-05 03:57:00,,0814.4,5.02,0.00,28.7,27.9,00.0,37.7,30.4,09.9,0000.0,0004.04,0015.64,0003.17
2022-03-05 03:58:00,,0814.4,4.99,0.00,28.7,27.9,00.0,37.7,30.5,09.8,0000.0,0004.07,0014.83,0003.17
2022-03-05 03:59:00,,0814.4,5.01,0.00,28.7,27.9,00.0,37.7,30.5,09.7,0000.0,0004.11,0012.82,0003.17
